Weather History for Altus AFB, OK

Change the Weather History Date:

Tuesday, September 20, 2011

  Actual Average Record
Temperature  
Mean Temperature 74 °F -  
Max Temperature 92 °F 83 °F 100 °F (1998)
Min Temperature 57 °F 59 °F 51 °F (2002)
Cooling Degree Days 10    
Growing Degree Days 24 (Base 50)    
Moisture  
Dew Point 48 °F    
Average Humidity 45    
Maximum Humidity 81    
Minimum Humidity 19    
Precipitation  
Precipitation 0.00 in - - ()
Sea Level Pressure  
Sea Level Pressure 29.93 in    
Wind  
Wind Speed 8 mph (SE)    
Max Wind Speed 16 mph    
Max Gust Speed 24 mph    
Visibility 10 miles    
Events      
Averages and records for this station are not official NWS values.
T = Trace of Precipitation, MM = Missing Value Source: NWS Daily Summary

Daily Weather History Graph

Daily Weather History Graph

Search for Another Location

Airport:

Trip Planner

Search our weather history database for the weather conditions in past years. The results will help you decide how hot, cold, wet, or windy it might be!

Date:

Astronomy

Sep. 20, 2011 Rise Set
Actual Time 7:23 AM CDT 7:37 PM CDT
Civil Twilight 6:58 AM CDT 8:02 PM CDT
Nautical Twilight 6:28 AM CDT 8:31 PM CDT
Astronomical Twilight 5:58 AM CDT 9:01 PM CDT
Moon 12:03 AM CDT (9/20) 2:47 PM CDT (9/20)
Length of Visible Light 13h 03m
Length of Day
12h 13m
Waning Gibbous, 48% of the Moon is Illuminated
Sep 20
Waning Gibbous
Sep 27
New
Oct 3
First Quarter
Oct 11
Full
Oct 19
Last Quarter

Hourly Weather History & Observations

Time (CDT) Temp. Dew Point Humidity Pressure Visibility Wind Dir Wind Speed Gust Speed Precip Events Conditions
12:55 AM 63.1 °F 51.4 °F 66% 30.01 in 10.0 mi SE 5.8 mph - N/A   Clear
1:55 AM 61.7 °F 51.4 °F 69% 30.00 in 10.0 mi Variable 6.9 mph - N/A   Clear
2:55 AM 61.5 °F 50.5 °F 67% 29.99 in 10.0 mi ESE 4.6 mph - N/A   Clear
3:55 AM 61.0 °F 50.2 °F 68% 29.99 in 10.0 mi SE 3.5 mph - N/A   Clear
4:55 AM 61.0 °F 50.0 °F 67% 29.99 in 10.0 mi Calm Calm - N/A   Clear
5:55 AM 59.5 °F 51.6 °F 75% 29.99 in 10.0 mi East 4.6 mph - N/A   Partly Cloudy
6:55 AM 59.4 °F 50.5 °F 73% 29.99 in 10.0 mi Calm Calm - N/A   Mostly Cloudy
7:55 AM 57.9 °F 52.0 °F 81% 30.01 in 10.0 mi East 3.5 mph - N/A   Partly Cloudy
8:55 AM 65.5 °F 52.0 °F 62% 30.02 in 10.0 mi SSE 9.2 mph - N/A   Mostly Cloudy
9:55 AM 72.7 °F 51.1 °F 47% 30.01 in 10.0 mi South 12.7 mph - N/A   Overcast
10:55 AM 77.2 °F 49.5 °F 38% 30.01 in 10.0 mi South 9.2 mph - N/A   Mostly Cloudy
12:55 PM 84.0 °F 46.6 °F 27% 29.96 in 10.0 mi South 11.5 mph - N/A   Clear
1:55 PM 87.3 °F 44.6 °F 23% 29.93 in 10.0 mi SE 11.5 mph 20.7 mph N/A   Clear
2:55 PM 89.6 °F 45.3 °F 21% 29.88 in 10.0 mi SSE 11.5 mph 18.4 mph N/A   Clear
3:55 PM 91.4 °F 44.8 °F 20% 29.85 in 10.0 mi South 16.1 mph 24.2 mph N/A   Clear
4:55 PM 92.3 °F 44.6 °F 19% 29.83 in 10.0 mi SSE 16.1 mph - N/A   Clear
5:55 PM 91.9 °F 43.9 °F 19% 29.83 in 10.0 mi SSE 13.8 mph - N/A   Scattered Clouds
6:55 PM 90.3 °F 44.2 °F 20% 29.83 in 10.0 mi ESE 15.0 mph - N/A   Mostly Cloudy
7:55 PM 84.0 °F 45.1 °F 26% 29.85 in 10.0 mi East 12.7 mph - N/A   Scattered Clouds
8:55 PM 80.1 °F 44.8 °F 29% 29.85 in 10.0 mi ESE 12.7 mph - N/A   Clear
9:55 PM 77.4 °F 47.3 °F 35% 29.87 in 10.0 mi East 11.5 mph - N/A   Clear
10:55 PM 76.3 °F 47.8 °F 37% 29.89 in 10.0 mi East 9.2 mph - N/A   Mostly Cloudy
11:55 PM 73.2 °F 49.8 °F 44% 29.90 in 10.0 mi ESE 9.2 mph - N/A   Partly Cloudy